AE7VB Weather Reports


time (UTC)temp
F
wind
direction
speed
knots
gust
knots
rain 1hr
in
rain 24hr
in
rain mn
in
humidity
%
barometer
mb
20260903104533 51 28 0.0 0.0 0.00 0.00 0.15 92 1016.0
20260903103026 51 27 0.0 0.0 0.00 0.00 0.15 91 1016.0
20260903101553 51 27 0.0 0.0 0.00 0.00 0.13 91 1016.1
20260903100042 51 28 0.0 0.0 0.00 0.00 0.12 91 1015.8
20260903094518 52 27 0.0 0.0 0.00 0.00 0.11 91 1015.7
20260903093023 52 28 0.0 0.0 0.00 0.00 0.10 90 1015.7
20260903091549 52 27 0.0 0.0 0.00 0.00 0.09 90 1015.6
20260903090021 52 68 0.0 0.0 0.00 0.00 0.08 90 1015.4
20260903084548 52 24 0.0 0.0 0.00 0.00 0.07 89 1015.6
20260903083101 52 22 0.0 0.0 0.00 0.00 0.05 88 1015.6
20260903081529 53 76 0.0 0.0 0.00 0.00 0.04 87 1015.7
20260903080036 53 60 0.9 0.0 0.00 0.00 0.03 87 1015.3
20260903074542 54 60 0.0 0.0 0.00 0.00 0.03 86 1015.2
20260903073040 54 69 0.9 0.0 0.00 0.00 0.02 84 1015.1
20260903071508 55 69 0.0 0.0 0.00 0.00 0.01 82 1015.1
20260903070019 56 45 0.0 0.0 0.00 0.00 0.00 78 1014.9
20260903064545 57 70 0.0 0.0 0.00 0.00 0.00 74 1015.0
20260903063055 57 72 0.0 0.0 0.00 0.00 0.00 70 1014.7
20260903061552 57 78 0.0 0.0 0.00 0.00 0.00 70 1014.8
20260903060055 57 71 0.0 0.0 0.00 0.00 0.00 69 1014.7
20260903054540 57 64 0.9 0.0 0.00 0.00 0.00 69 1014.7
20260903053040 58 63 0.0 0.0 0.00 0.00 0.00 70 1014.4
20260903051541 59 38 0.9 0.0 0.00 0.00 0.00 68 1014.3
20260903050037 60 17 0.9 0.0 0.00 0.00 0.00 65 1014.1
20260903044507 62 104 0.0 0.0 0.00 0.00 0.00 64 1013.9
20260903043022 63 289 0.0 0.0 0.00 0.00 0.00 60 1013.6
20260903041541 64 284 0.9 0.0 0.00 0.00 0.00 57 1013.5
20260903040058 66 303 0.9 0.0 0.00 0.00 0.00 48 1013.5
20260903034512 67 225 1.7 0.0 0.00 0.00 0.00 37 1013.2
20260903033042 67 231 1.7 0.0 0.00 0.00 0.00 37 1013.1
20260903031523 67 190 0.9 0.0 0.00 0.00 0.00 37 1012.8
20260903030036 67 199 1.7 0.0 0.00 0.00 0.00 37 1012.5
20260903024536 67 187 1.7 0.0 0.00 0.00 0.00 36 1012.4
20260903023008 67 210 1.7 0.0 0.00 0.00 0.00 36 1012.3
20260903021536 68 150 0.9 0.0 0.00 0.00 0.00 36 1012.3
20260903020007 68 178 1.7 0.0 0.00 0.00 0.00 35 1012.4
20260903014602 68 239 0.9 0.0 0.00 0.00 0.00 34 1012.4
20260903013050 68 193 0.9 0.0 0.00 0.00 0.00 34 1012.4
20260903011552 69 217 1.7 0.0 0.00 0.00 0.00 34 1012.4
20260903010040 69 227 1.7 0.0 0.00 0.00 0.00 33 1012.2
20260903004533 70 224 2.6 0.0 0.00 0.00 0.00 32 1012.2
20260903003046 71 186 1.7 0.0 0.00 0.00 0.00 31 1012.0
20260903001518 70 177 2.6 0.0 0.00 0.00 0.00 33 1012.1
20260903000010 68 250 2.6 0.0 0.00 0.00 0.00 35 1012.0
20260902203039 64 59 0.9 3.5 0.00 0.17 0.17 72 1013.6
20260902201521 65 51 0.0 2.6 0.00 0.17 0.17 71 1013.6
20260902200058 64 26 0.0 2.6 0.00 0.17 0.17 74 1013.8
20260902194550 63 30 0.0 4.3 0.00 0.17 0.17 73 1014.0
20260902193038 63 35 0.0 0.9 0.00 0.17 0.17 73 1014.2
20260902191520 61 268 0.0 0.9 0.00 0.17 0.17 76 1014.3
20260902190010 61 259 0.0 0.9 0.00 0.17 0.17 83 1014.4
20260902184558 59 268 0.0 5.2 0.00 0.17 0.17 86 1014.5
20260902183054 56 261 1.7 3.5 0.00 0.17 0.17 87 1014.5
20260902181556 56 286 0.0 2.6 0.00 0.17 0.17 89 1014.5
20260902180053 55 88 0.0 0.0 0.00 0.17 0.17 89 1014.4
20260902174602 54 120 0.0 1.7 0.00 0.17 0.17 90 1014.4
20260902173043 53 88 0.0 7.0 0.00 0.17 0.17 92 1014.5
20260902171523 52 150 0.0 4.3 0.02 0.17 0.17 92 1014.7
20260902170018 51 98 1.7 7.8 0.07 0.17 0.17 91 1014.4
20260902164506 52 46 2.6 13.9 0.10 0.17 0.17 90 1013.8
20260902163047 52 63 0.0 4.3 0.14 0.17 0.17 88 1014.4
20260902161537 53 44 0.0 1.7 0.14 0.15 0.15 87 1015.5
20260902160009 54 80 0.0 1.7 0.10 0.10 0.10 86 1015.9
20260902154555 55 284 0.0 0.0 0.07 0.07 0.08 85 1015.3
20260902153041 55 283 0.0 0.0 0.03 0.03 0.03 83 1015.2
20260902151517 56 280 0.0 0.0 0.01 0.01 0.01 79 1015.0
20260902150055 56 271 0.0 7.8 0.00 0.00 0.00 77 1014.7
20260902144546 57 254 1.7 6.1 0.00 0.00 0.00 66 1014.7
20260902143018 57 297 0.0 0.0 0.00 0.00 0.00 67 1014.3
20260902141521 57 84 0.0 0.0 0.00 0.00 0.00 67 1014.2
20260902140054 57 84 0.0 0.0 0.00 0.00 0.00 70 1013.7
20260902134539 57 53 0.0 0.0 0.00 0.00 0.00 73 1013.0
20260902133018 57 284 0.0 0.0 0.00 0.00 0.00 73 1012.6
20260902131503 57 285 0.0 0.0 0.00 0.00 0.00 73 1012.5
20260902130049 57 284 0.0 0.0 0.00 0.00 0.00 73 1012.2
20260902124539 58 284 0.0 0.0 0.00 0.00 0.00 72 1012.0
20260902123033 58 284 0.0 0.0 0.00 0.00 0.00 72 1011.8
20260902121519 57 284 0.0 2.6 0.00 0.00 0.00 73 1011.3
20260902120018 57 229 0.0 0.0 0.00 0.00 0.00 74 1011.5
20260902114603 57 229 0.0 2.6 0.00 0.00 0.00 75 1011.4
20260902113027 57 226 0.0 0.0 0.00 0.00 0.00 74 1011.2
20260902111523 57 232 0.0 3.5 0.00 0.00 0.00 73 1011.1
20260902110025 57 254 0.0 5.2 0.00 0.00 0.00 72 1011.1